Time,TemperatureF,DewpointF,PressureIn,WindDirection,WindDirectionDegrees,WindSpeedMPH,WindSpeedGustMPH,Humidity,HourlyPrecipIn,Conditions,Clouds,dailyrainin,SoftwareType,DateUTC
2013-08-20 00:01:00,83.5,76.0,30.05,ENE,67,7.0,9.0,79,0.00,,,0.00,Rainwise IP-100,2013-08-20 04:01:00,
2013-08-20 00:07:00,83.4,76.0,30.05,ENE,67,4.0,11.0,79,0.00,,,0.00,Rainwise IP-100,2013-08-20 04:07:00,
2013-08-20 00:12:00,83.5,76.0,30.05,ENE,67,5.4,9.0,78,0.00,,,0.00,Rainwise IP-100,2013-08-20 04:12:00,
2013-08-20 00:17:00,83.5,75.0,30.05,ENE,67,4.0,7.0,77,0.00,,,0.00,Rainwise IP-100,2013-08-20 04:17:00,
2013-08-20 00:22:00,83.6,76.0,30.06,ENE,67,6.8,7.0,78,0.00,,,0.00,Rainwise IP-100,2013-08-20 04:22:00,
2013-08-20 00:27:00,83.5,76.0,30.06,East,90,2.1,9.0,78,0.00,,,0.00,Rainwise IP-100,2013-08-20 04:27:00,
2013-08-20 00:32:00,83.4,76.0,30.05,ESE,112,10.0,10.0,78,0.00,,,0.00,Rainwise IP-100,2013-08-20 04:32:00,
2013-08-20 00:37:00,83.4,76.0,30.05,East,90,5.1,10.0,78,0.00,,,0.00,Rainwise IP-100,2013-08-20 04:37:00,
2013-08-20 00:42:00,83.5,76.0,30.05,ENE,67,3.7,9.0,78,0.00,,,0.00,Rainwise IP-100,2013-08-20 04:42:00,
2013-08-20 00:48:00,83.5,76.0,30.06,ENE,67,6.8,8.0,79,0.00,,,0.00,Rainwise IP-100,2013-08-20 04:48:00,
2013-08-20 00:53:00,83.4,76.0,30.05,ENE,67,5.8,11.0,80,0.00,,,0.00,Rainwise IP-100,2013-08-20 04:53:00,
2013-08-20 00:58:00,83.2,76.0,30.05,ENE,67,4.0,11.0,80,0.00,,,0.00,Rainwise IP-100,2013-08-20 04:58:00,
2013-08-20 01:03:00,83.2,76.0,30.05,ENE,67,5.1,11.0,80,0.00,,,0.00,Rainwise IP-100,2013-08-20 05:03:00,
2013-08-20 01:08:00,83.2,76.0,30.05,ENE,67,8.4,11.0,79,0.00,,,0.00,Rainwise IP-100,2013-08-20 05:08:00,
2013-08-20 01:13:00,83.3,76.0,30.06,East,90,5.1,11.0,78,0.00,,,0.00,Rainwise IP-100,2013-08-20 05:13:00,
2013-08-20 01:18:00,83.4,75.0,30.05,NE,45,7.2,12.0,76,0.00,,,0.00,Rainwise IP-100,2013-08-20 05:18:00,
2013-08-20 01:24:00,83.4,75.0,30.05,East,90,6.1,14.0,77,0.00,,,0.00,Rainwise IP-100,2013-08-20 05:24:00,
2013-08-20 01:29:00,83.3,76.0,30.05,ENE,67,9.6,12.0,78,0.00,,,0.00,Rainwise IP-100,2013-08-20 05:29:00,
2013-08-20 01:34:00,83.3,76.0,30.04,ENE,67,4.7,11.0,78,0.00,,,0.00,Rainwise IP-100,2013-08-20 05:34:00,
2013-08-20 01:39:00,83.2,76.0,30.05,ENE,67,3.7,11.0,79,0.00,,,0.00,Rainwise IP-100,2013-08-20 05:39:00,
2013-08-20 01:44:00,83.1,76.0,30.04,East,90,4.4,10.0,79,0.00,,,0.00,Rainwise IP-100,2013-08-20 05:44:00,
2013-08-20 01:49:00,83.2,76.0,30.04,ESE,112,3.0,7.0,79,0.00,,,0.00,Rainwise IP-100,2013-08-20 05:49:00,
2013-08-20 01:54:00,83.2,76.0,30.04,ENE,67,2.6,8.0,80,0.00,,,0.00,Rainwise IP-100,2013-08-20 05:54:00,
2013-08-20 01:59:00,83.1,76.0,30.04,ENE,67,5.1,9.0,80,0.00,,,0.00,Rainwise IP-100,2013-08-20 05:59:00,
2013-08-20 02:05:00,83.1,76.0,30.04,ENE,67,6.1,13.0,80,0.00,,,0.00,Rainwise IP-100,2013-08-20 06:05:00,
2013-08-20 02:10:00,83.1,76.0,30.03,ESE,112,4.0,11.0,80,0.00,,,0.00,Rainwise IP-100,2013-08-20 06:10:00,
2013-08-20 02:15:00,83.2,76.0,30.04,East,90,8.9,10.0,79,0.00,,,0.00,Rainwise IP-100,2013-08-20 06:15:00,
2013-08-20 02:20:00,83.3,76.0,30.03,ESE,112,4.2,11.0,79,0.00,,,0.00,Rainwise IP-100,2013-08-20 06:20:00,
2013-08-20 02:25:00,83.3,76.0,30.03,ENE,67,3.7,11.0,79,0.00,,,0.00,Rainwise IP-100,2013-08-20 06:25:00,
2013-08-20 02:30:00,83.1,76.0,30.04,East,90,8.6,10.0,79,0.00,,,0.00,Rainwise IP-100,2013-08-20 06:30:00,
2013-08-20 02:35:00,82.9,76.0,30.03,ENE,67,9.3,13.0,79,0.00,,,0.00,Rainwise IP-100,2013-08-20 06:35:00,
2013-08-20 02:41:00,82.7,75.0,30.03,ENE,67,6.3,10.0,79,0.00,,,0.00,Rainwise IP-100,2013-08-20 06:41:00,
2013-08-20 02:46:00,82.4,75.0,30.03,ENE,67,8.6,11.0,79,0.00,,,0.00,Rainwise IP-100,2013-08-20 06:46:00,
2013-08-20 02:51:00,82.6,74.0,30.02,ENE,67,5.4,11.0,77,0.00,,,0.00,Rainwise IP-100,2013-08-20 06:51:00,
2013-08-20 02:56:00,82.6,74.0,30.02,ENE,67,6.1,13.0,77,0.00,,,0.00,Rainwise IP-100,2013-08-20 06:56:00,
2013-08-20 03:01:00,82.3,74.0,30.03,SE,135,1.4,11.0,78,0.00,,,0.00,Rainwise IP-100,2013-08-20 07:01:00,
2013-08-20 03:06:00,82.1,74.0,30.02,ENE,67,4.0,10.0,79,0.00,,,0.00,Rainwise IP-100,2013-08-20 07:06:00,
2013-08-20 03:11:00,82.0,74.0,30.02,ESE,112,1.4,10.0,79,0.00,,,0.00,Rainwise IP-100,2013-08-20 07:11:00,
2013-08-20 03:16:00,81.9,74.0,30.02,ESE,112,4.0,11.0,79,0.00,,,0.00,Rainwise IP-100,2013-08-20 07:16:00,
2013-08-20 03:22:00,81.9,74.0,30.03,ENE,67,7.9,11.0,79,0.00,,,0.00,Rainwise IP-100,2013-08-20 07:22:00,
2013-08-20 03:27:00,81.9,74.0,30.02,ENE,67,4.0,12.0,79,0.00,,,0.00,Rainwise IP-100,2013-08-20 07:27:00,
2013-08-20 03:32:00,82.0,74.0,30.02,East,90,3.7,11.0,79,0.00,,,0.00,Rainwise IP-100,2013-08-20 07:32:00,
2013-08-20 03:37:00,82.0,74.0,30.02,ESE,112,3.0,11.0,78,0.00,,,0.00,Rainwise IP-100,2013-08-20 07:37:00,
2013-08-20 03:42:00,82.0,74.0,30.02,ENE,67,9.1,10.0,79,0.00,,,0.00,Rainwise IP-100,2013-08-20 07:42:00,
2013-08-20 03:47:00,82.0,74.0,30.02,ENE,67,6.5,11.0,79,0.00,,,0.00,Rainwise IP-100,2013-08-20 07:47:00,
2013-08-20 03:52:00,82.1,75.0,30.02,East,90,3.5,9.0,80,0.00,,,0.00,Rainwise IP-100,2013-08-20 07:52:00,
2013-08-20 03:58:00,82.1,75.0,30.02,ENE,67,5.1,9.0,80,0.00,,,0.00,Rainwise IP-100,2013-08-20 07:58:00,
2013-08-20 04:03:00,82.1,75.0,30.02,ENE,67,3.3,10.0,81,0.00,,,0.00,Rainwise IP-100,2013-08-20 08:03:00,
2013-08-20 04:08:00,82.1,75.0,30.02,ESE,112,0.0,8.0,81,0.00,,,0.00,Rainwise IP-100,2013-08-20 08:08:00,
2013-08-20 04:13:00,82.0,76.0,30.02,ESE,112,2.6,8.0,82,0.00,,,0.00,Rainwise IP-100,2013-08-20 08:13:00,
2013-08-20 04:18:00,82.0,75.0,30.02,ENE,67,5.6,8.0,80,0.00,,,0.00,Rainwise IP-100,2013-08-20 08:18:00,
2013-08-20 04:23:00,82.3,75.0,30.01,ENE,67,10.3,14.0,79,0.00,,,0.00,Rainwise IP-100,2013-08-20 08:23:00,
2013-08-20 04:28:00,82.2,75.0,30.02,East,90,11.4,12.0,80,0.00,,,0.00,Rainwise IP-100,2013-08-20 08:28:00,
2013-08-20 04:33:00,81.7,74.0,30.02,NE,45,5.1,13.0,80,0.00,,,0.00,Rainwise IP-100,2013-08-20 08:33:00,
2013-08-20 04:39:00,81.5,74.0,30.01,ENE,67,7.7,15.0,80,0.00,,,0.00,Rainwise IP-100,2013-08-20 08:39:00,
2013-08-20 04:44:00,81.5,74.0,30.02,ENE,67,5.6,10.0,80,0.00,,,0.00,Rainwise IP-100,2013-08-20 08:44:00,
2013-08-20 04:49:00,81.6,74.0,30.02,ENE,67,9.1,10.0,79,0.00,,,0.00,Rainwise IP-100,2013-08-20 08:49:00,
2013-08-20 04:54:00,81.6,74.0,30.02,East,90,4.9,9.0,79,0.00,,,0.00,Rainwise IP-100,2013-08-20 08:54:00,
2013-08-20 04:59:00,81.6,73.0,30.02,ENE,67,7.2,10.0,77,0.00,,,0.00,Rainwise IP-100,2013-08-20 08:59:00,
2013-08-20 05:04:00,81.7,73.0,30.01,East,90,8.2,12.0,77,0.00,,,0.00,Rainwise IP-100,2013-08-20 09:04:00,
2013-08-20 05:09:00,81.7,74.0,30.02,ENE,67,4.4,9.0,79,0.00,,,0.00,Rainwise IP-100,2013-08-20 09:09:00,
2013-08-20 05:15:00,81.5,75.0,30.01,East,90,7.2,7.2,81,0.00,,,0.00,Rainwise IP-100,2013-08-20 09:15:00,
2013-08-20 05:20:00,81.3,75.0,30.01,SSE,157,2.8,9.0,82,0.00,,,0.00,Rainwise IP-100,2013-08-20 09:20:00,
2013-08-20 05:25:00,81.3,74.0,30.02,East,90,4.9,6.0,81,0.00,,,0.00,Rainwise IP-100,2013-08-20 09:25:00,
2013-08-20 05:30:00,81.4,75.0,30.02,ESE,112,2.6,7.0,82,0.00,,,0.00,Rainwise IP-100,2013-08-20 09:30:00,
2013-08-20 05:35:00,81.4,76.0,30.01,East,90,7.5,7.5,83,0.00,,,0.00,Rainwise IP-100,2013-08-20 09:35:00,
2013-08-20 05:40:00,81.4,76.0,30.02,ESE,112,4.0,10.0,83,0.00,,,0.00,Rainwise IP-100,2013-08-20 09:40:00,
2013-08-20 05:45:00,81.4,76.0,30.02,ENE,67,3.3,9.0,83,0.00,,,0.00,Rainwise IP-100,2013-08-20 09:45:00,
2013-08-20 05:50:00,81.5,76.0,30.02,SE,135,4.7,5.0,84,0.00,,,0.00,Rainwise IP-100,2013-08-20 09:50:00,
2013-08-20 05:56:00,81.3,76.0,30.02,SE,135,7.2,7.2,84,0.00,,,0.00,Rainwise IP-100,2013-08-20 09:56:00,
2013-08-20 06:01:00,81.2,76.0,30.02,SSE,157,2.3,7.0,84,0.00,,,0.00,Rainwise IP-100,2013-08-20 10:01:00,
2013-08-20 06:06:00,81.1,76.0,30.02,East,90,4.2,6.0,84,0.00,,,0.00,Rainwise IP-100,2013-08-20 10:06:00,
2013-08-20 06:11:00,81.1,75.0,30.02,ESE,112,6.1,11.0,83,0.00,,,0.00,Rainwise IP-100,2013-08-20 10:11:00,
2013-08-20 06:16:00,81.3,75.0,30.02,ESE,112,2.8,11.0,82,0.00,,,0.00,Rainwise IP-100,2013-08-20 10:16:00,
2013-08-20 06:21:00,81.5,75.0,30.02,South,180,0.0,10.0,82,0.00,,,0.00,Rainwise IP-100,2013-08-20 10:21:00,
2013-08-20 06:26:00,81.6,75.0,30.02,NE,45,7.2,9.0,82,0.00,,,0.00,Rainwise IP-100,2013-08-20 10:26:00,
2013-08-20 06:32:00,81.6,76.0,30.03,East,90,9.1,10.0,83,0.00,,,0.00,Rainwise IP-100,2013-08-20 10:32:00,
2013-08-20 06:37:00,81.4,76.0,30.02,East,90,4.9,10.0,83,0.00,,,0.00,Rainwise IP-100,2013-08-20 10:37:00,
2013-08-20 06:42:00,81.4,74.0,30.02,ESE,112,7.5,11.0,81,0.00,,,0.00,Rainwise IP-100,2013-08-20 10:42:00,
2013-08-20 06:47:00,81.7,74.0,30.03,East,90,3.0,10.0,79,0.00,,,0.00,Rainwise IP-100,2013-08-20 10:47:00,
2013-08-20 06:52:00,81.9,74.0,30.02,ENE,67,6.3,9.0,79,0.00,,,0.00,Rainwise IP-100,2013-08-20 10:52:00,
2013-08-20 06:57:00,81.9,75.0,30.03,ENE,67,7.2,11.0,80,0.00,,,0.00,Rainwise IP-100,2013-08-20 10:57:00,
2013-08-20 07:02:00,81.8,74.0,30.03,East,90,5.8,10.0,80,0.00,,,0.00,Rainwise IP-100,2013-08-20 11:02:00,
2013-08-20 07:07:00,81.8,74.0,30.03,ENE,67,4.0,9.0,79,0.00,,,0.00,Rainwise IP-100,2013-08-20 11:07:00,
2013-08-20 07:13:00,82.0,74.0,30.04,ENE,67,9.1,10.0,78,0.00,,,0.00,Rainwise IP-100,2013-08-20 11:13:00,
2013-08-20 07:18:00,82.1,74.0,30.03,ENE,67,8.2,11.0,78,0.00,,,0.00,Rainwise IP-100,2013-08-20 11:18:00,
2013-08-20 07:23:00,82.2,74.0,30.03,ENE,67,7.9,11.0,78,0.00,,,0.00,Rainwise IP-100,2013-08-20 11:23:00,
2013-08-20 07:28:00,82.2,75.0,30.04,East,90,6.8,11.0,79,0.00,,,0.00,Rainwise IP-100,2013-08-20 11:28:00,
2013-08-20 07:33:00,82.2,75.0,30.04,ESE,112,2.8,9.0,79,0.00,,,0.00,Rainwise IP-100,2013-08-20 11:33:00,
2013-08-20 07:38:00,82.3,75.0,30.05,ENE,67,5.4,8.0,79,0.00,,,0.00,Rainwise IP-100,2013-08-20 11:38:00,
2013-08-20 07:43:00,82.3,75.0,30.04,East,90,4.4,6.0,79,0.00,,,0.00,Rainwise IP-100,2013-08-20 11:43:00,
2013-08-20 07:49:00,82.3,75.0,30.04,ESE,112,4.2,7.0,79,0.00,,,0.00,Rainwise IP-100,2013-08-20 11:49:00,
2013-08-20 07:54:00,82.4,75.0,30.05,East,90,3.5,8.0,79,0.00,,,0.00,Rainwise IP-100,2013-08-20 11:54:00,
2013-08-20 07:59:00,82.4,74.0,30.05,East,90,3.5,9.0,78,0.00,,,0.00,Rainwise IP-100,2013-08-20 11:59:00,
2013-08-20 08:04:00,82.6,74.0,30.05,ENE,67,4.0,9.0,78,0.00,,,0.00,Rainwise IP-100,2013-08-20 12:04:00,
2013-08-20 08:09:00,82.9,75.0,30.05,ENE,67,3.5,10.0,78,0.00,,,0.00,Rainwise IP-100,2013-08-20 12:09:00,
2013-08-20 08:14:00,83.1,75.0,30.05,East,90,2.8,10.0,77,0.00,,,0.00,Rainwise IP-100,2013-08-20 12:14:00,
2013-08-20 08:19:00,83.2,75.0,30.05,ENE,67,3.3,8.0,77,0.00,,,0.00,Rainwise IP-100,2013-08-20 12:19:00,
2013-08-20 08:24:00,83.4,75.0,30.05,East,90,3.5,11.0,77,0.00,,,0.00,Rainwise IP-100,2013-08-20 12:24:00,
2013-08-20 08:30:00,83.5,75.0,30.05,East,90,7.7,10.0,76,0.00,,,0.00,Rainwise IP-100,2013-08-20 12:30:00,
2013-08-20 08:35:00,83.6,75.0,30.05,ENE,67,5.6,13.0,76,0.00,,,0.00,Rainwise IP-100,2013-08-20 12:35:00,
2013-08-20 08:40:00,83.6,75.0,30.05,East,90,5.4,10.0,76,0.00,,,0.00,Rainwise IP-100,2013-08-20 12:40:00,
2013-08-20 08:45:00,83.8,75.0,30.06,ENE,67,6.3,11.0,75,0.00,,,0.00,Rainwise IP-100,2013-08-20 12:45:00,
2013-08-20 08:50:00,84.3,75.0,30.05,ESE,112,7.0,9.0,75,0.00,,,0.00,Rainwise IP-100,2013-08-20 12:50:00,
2013-08-20 08:55:00,84.6,75.0,30.06,ENE,67,5.6,13.0,74,0.00,,,0.00,Rainwise IP-100,2013-08-20 12:55:00,
2013-08-20 09:00:00,84.5,75.0,30.06,ENE,67,2.6,9.0,74,0.00,,,0.00,Rainwise IP-100,2013-08-20 13:00:00,
2013-08-20 09:06:00,84.7,75.0,30.06,ESE,112,1.6,8.0,74,0.00,,,0.00,Rainwise IP-100,2013-08-20 13:06:00,
2013-08-20 09:11:00,85.0,76.0,30.06,ESE,112,3.3,9.0,74,0.00,,,0.00,Rainwise IP-100,2013-08-20 13:11:00,
2013-08-20 09:16:00,85.0,76.0,30.06,SE,135,3.5,12.0,74,0.00,,,0.00,Rainwise IP-100,2013-08-20 13:16:00,
2013-08-20 09:21:00,85.1,76.0,30.06,East,90,3.5,11.0,74,0.00,,,0.00,Rainwise IP-100,2013-08-20 13:21:00,
2013-08-20 09:26:00,85.3,76.0,30.06,East,90,1.2,7.0,74,0.00,,,0.00,Rainwise IP-100,2013-08-20 13:26:00,
2013-08-20 09:31:00,85.5,76.0,30.06,SW,225,1.6,10.0,73,0.00,,,0.00,Rainwise IP-100,2013-08-20 13:31:00,
2013-08-20 09:36:00,85.9,75.0,30.06,ESE,112,3.0,10.0,71,0.00,,,0.00,Rainwise IP-100,2013-08-20 13:36:00,
2013-08-20 09:41:00,86.1,74.0,30.06,ESE,112,4.0,13.0,69,0.00,,,0.00,Rainwise IP-100,2013-08-20 13:41:00,
2013-08-20 09:47:00,86.4,75.0,30.06,East,90,0.0,7.0,69,0.00,,,0.00,Rainwise IP-100,2013-08-20 13:47:00,
2013-08-20 09:52:00,86.7,74.0,30.07,SSE,157,5.1,9.0,68,0.00,,,0.00,Rainwise IP-100,2013-08-20 13:52:00,
2013-08-20 09:57:00,86.8,74.0,30.07,SSW,202,4.0,11.0,68,0.00,,,0.00,Rainwise IP-100,2013-08-20 13:57:00,
2013-08-20 10:02:00,86.6,74.0,30.07,South,180,8.4,12.0,68,0.00,,,0.00,Rainwise IP-100,2013-08-20 14:02:00,
2013-08-20 10:07:00,86.6,74.0,30.07,SE,135,2.1,11.0,68,0.00,,,0.00,Rainwise IP-100,2013-08-20 14:07:00,
2013-08-20 10:12:00,86.4,75.0,30.06,East,90,11.0,13.0,69,0.00,,,0.00,Rainwise IP-100,2013-08-20 14:12:00,
2013-08-20 10:17:00,85.8,75.0,30.06,ESE,112,12.4,14.0,71,0.00,,,0.00,Rainwise IP-100,2013-08-20 14:17:00,
2013-08-20 10:23:00,85.2,75.0,30.06,ENE,67,9.6,13.0,73,0.00,,,0.00,Rainwise IP-100,2013-08-20 14:23:00,
2013-08-20 10:28:00,85.0,76.0,30.07,East,90,4.4,16.0,74,0.00,,,0.00,Rainwise IP-100,2013-08-20 14:28:00,
2013-08-20 10:33:00,85.0,76.0,30.06,East,90,4.9,11.0,74,0.00,,,0.00,Rainwise IP-100,2013-08-20 14:33:00,
2013-08-20 10:38:00,85.0,76.0,30.06,East,90,2.6,12.0,74,0.00,,,0.00,Rainwise IP-100,2013-08-20 14:38:00,
2013-08-20 10:43:00,85.0,76.0,30.07,ESE,112,3.0,9.0,74,0.00,,,0.00,Rainwise IP-100,2013-08-20 14:43:00,
2013-08-20 10:48:00,85.1,76.0,30.07,ESE,112,7.5,14.0,74,0.00,,,0.00,Rainwise IP-100,2013-08-20 14:48:00,
2013-08-20 10:53:00,85.3,75.0,30.07,ENE,67,7.5,11.0,73,0.00,,,0.00,Rainwise IP-100,2013-08-20 14:53:00,
2013-08-20 10:58:00,85.7,75.0,30.08,NE,45,8.2,14.0,71,0.00,,,0.00,Rainwise IP-100,2013-08-20 14:58:00,
2013-08-20 11:04:00,85.9,75.0,30.07,NNE,22,4.7,12.0,70,0.00,,,0.00,Rainwise IP-100,2013-08-20 15:04:00,
2013-08-20 11:09:00,85.7,75.0,30.07,East,90,2.3,11.0,71,0.00,,,0.00,Rainwise IP-100,2013-08-20 15:09:00,
2013-08-20 11:14:00,85.7,75.0,30.08,SE,135,7.2,14.0,71,0.00,,,0.00,Rainwise IP-100,2013-08-20 15:14:00,
2013-08-20 11:19:00,86.0,75.0,30.07,NE,45,11.7,13.0,71,0.00,,,0.00,Rainwise IP-100,2013-08-20 15:19:00,
2013-08-20 11:24:00,86.4,75.0,30.07,East,90,10.7,14.0,70,0.00,,,0.00,Rainwise IP-100,2013-08-20 15:24:00,
2013-08-20 11:29:00,86.3,75.0,30.08,NE,45,7.9,13.0,70,0.00,,,0.00,Rainwise IP-100,2013-08-20 15:29:00,
2013-08-20 11:34:00,86.0,74.0,30.07,ENE,67,7.5,14.0,69,0.00,,,0.00,Rainwise IP-100,2013-08-20 15:34:00,
2013-08-20 11:40:00,85.7,74.0,30.08,ENE,67,6.1,11.0,69,0.00,,,0.00,Rainwise IP-100,2013-08-20 15:40:00,
2013-08-20 11:45:00,85.6,73.0,30.08,ESE,112,2.3,12.0,67,0.00,,,0.00,Rainwise IP-100,2013-08-20 15:45:00,
2013-08-20 11:50:00,85.6,73.0,30.08,ENE,67,5.1,12.0,67,0.00,,,0.00,Rainwise IP-100,2013-08-20 15:50:00,
2013-08-20 11:55:00,85.7,73.0,30.07,East,90,9.8,15.0,68,0.00,,,0.00,Rainwise IP-100,2013-08-20 15:55:00,
2013-08-20 12:00:00,86.1,74.0,30.08,East,90,2.1,10.0,69,0.00,,,0.00,Rainwise IP-100,2013-08-20 16:00:00,
2013-08-20 12:05:00,86.6,74.0,30.08,ENE,67,3.5,9.0,68,0.00,,,0.00,Rainwise IP-100,2013-08-20 16:05:00,
2013-08-20 12:10:00,86.8,74.0,30.08,ENE,67,7.7,14.0,67,0.00,,,0.00,Rainwise IP-100,2013-08-20 16:10:00,
2013-08-20 12:15:00,87.0,74.0,30.08,ENE,67,8.6,11.0,66,0.00,,,0.00,Rainwise IP-100,2013-08-20 16:15:00,
2013-08-20 12:21:00,87.3,74.0,30.08,East,90,4.2,8.0,66,0.00,,,0.00,Rainwise IP-100,2013-08-20 16:21:00,
2013-08-20 12:26:00,87.5,74.0,30.08,East,90,3.5,11.0,66,0.00,,,0.00,Rainwise IP-100,2013-08-20 16:26:00,
2013-08-20 12:31:00,87.2,74.0,30.08,ESE,112,3.3,11.0,66,0.00,,,0.00,Rainwise IP-100,2013-08-20 16:31:00,
2013-08-20 12:36:00,86.9,74.0,30.07,ESE,112,4.4,12.0,67,0.00,,,0.00,Rainwise IP-100,2013-08-20 16:36:00,
2013-08-20 12:41:00,86.9,75.0,30.08,ESE,112,2.3,13.0,68,0.00,,,0.00,Rainwise IP-100,2013-08-20 16:41:00,
2013-08-20 12:46:00,87.0,75.0,30.08,ENE,67,8.9,9.0,68,0.00,,,0.00,Rainwise IP-100,2013-08-20 16:46:00,
2013-08-20 12:51:00,87.4,75.0,30.07,ENE,67,10.5,10.5,68,0.00,,,0.00,Rainwise IP-100,2013-08-20 16:51:00,
2013-08-20 12:57:00,87.3,75.0,30.08,ENE,67,8.2,12.0,68,0.00,,,0.00,Rainwise IP-100,2013-08-20 16:57:00,
2013-08-20 13:02:00,87.3,75.0,30.08,ENE,67,7.7,10.0,68,0.00,,,0.00,Rainwise IP-100,2013-08-20 17:02:00,
2013-08-20 13:07:00,87.6,76.0,30.08,ESE,112,4.7,12.0,68,0.00,,,0.00,Rainwise IP-100,2013-08-20 17:07:00,
2013-08-20 13:12:00,87.8,75.0,30.07,SSE,157,1.4,10.0,67,0.00,,,0.00,Rainwise IP-100,2013-08-20 17:12:00,
2013-08-20 13:17:00,87.9,76.0,30.07,NE,45,6.3,7.0,67,0.00,,,0.00,Rainwise IP-100,2013-08-20 17:17:00,
2013-08-20 13:22:00,87.8,75.0,30.07,ENE,67,5.6,9.0,67,0.00,,,0.00,Rainwise IP-100,2013-08-20 17:22:00,
2013-08-20 13:27:00,87.4,75.0,30.08,ENE,67,6.5,11.0,67,0.00,,,0.00,Rainwise IP-100,2013-08-20 17:27:00,
2013-08-20 13:32:00,86.8,74.0,30.07,ENE,67,3.3,13.0,68,0.00,,,0.00,Rainwise IP-100,2013-08-20 17:32:00,
2013-08-20 13:38:00,86.4,75.0,30.08,East,90,8.2,12.0,69,0.00,,,0.00,Rainwise IP-100,2013-08-20 17:38:00,
2013-08-20 13:43:00,86.4,75.0,30.07,ESE,112,4.7,14.0,69,0.00,,,0.00,Rainwise IP-100,2013-08-20 17:43:00,
2013-08-20 13:48:00,86.6,75.0,30.07,East,90,5.1,11.0,69,0.00,,,0.00,Rainwise IP-100,2013-08-20 17:48:00,
2013-08-20 13:53:00,86.7,75.0,30.07,ESE,112,6.3,8.0,69,0.00,,,0.00,Rainwise IP-100,2013-08-20 17:53:00,
2013-08-20 13:58:00,86.8,75.0,30.07,East,90,5.4,9.0,69,0.00,,,0.00,Rainwise IP-100,2013-08-20 17:58:00,
2013-08-20 14:03:00,87.0,75.0,30.07,East,90,2.6,9.0,68,0.00,,,0.00,Rainwise IP-100,2013-08-20 18:03:00,
2013-08-20 14:08:00,87.0,74.0,30.07,SE,135,2.8,11.0,67,0.00,,,0.00,Rainwise IP-100,2013-08-20 18:08:00,
2013-08-20 14:14:00,86.8,74.0,30.07,ESE,112,6.8,10.0,68,0.00,,,0.00,Rainwise IP-100,2013-08-20 18:14:00,
2013-08-20 14:19:00,86.9,75.0,30.06,South,180,2.1,12.0,68,0.00,,,0.00,Rainwise IP-100,2013-08-20 18:19:00,
2013-08-20 14:24:00,87.3,74.0,30.06,ESE,112,8.2,14.0,67,0.00,,,0.00,Rainwise IP-100,2013-08-20 18:24:00,
2013-08-20 14:29:00,87.6,74.0,30.06,ENE,67,0.0,11.0,66,0.00,,,0.00,Rainwise IP-100,2013-08-20 18:29:00,
2013-08-20 14:34:00,87.6,74.0,30.06,SSW,202,0.0,11.0,66,0.00,,,0.00,Rainwise IP-100,2013-08-20 18:34:00,
2013-08-20 14:39:00,87.6,74.0,30.05,SSW,202,2.3,11.0,66,0.00,,,0.00,Rainwise IP-100,2013-08-20 18:39:00,
2013-08-20 14:44:00,87.5,74.0,30.05,East,90,11.2,13.0,66,0.00,,,0.00,Rainwise IP-100,2013-08-20 18:44:00,
2013-08-20 14:49:00,87.0,74.0,30.05,ENE,67,11.0,13.0,67,0.00,,,0.00,Rainwise IP-100,2013-08-20 18:49:00,
2013-08-20 14:55:00,86.1,74.0,30.05,ENE,67,7.9,16.0,69,0.00,,,0.00,Rainwise IP-100,2013-08-20 18:55:00,
2013-08-20 15:00:00,85.5,74.0,30.04,ENE,67,4.2,14.0,71,0.00,,,0.00,Rainwise IP-100,2013-08-20 19:00:00,
2013-08-20 15:05:00,85.8,74.0,30.05,ENE,67,8.9,12.0,70,0.00,,,0.00,Rainwise IP-100,2013-08-20 19:05:00,
2013-08-20 15:10:00,86.2,74.0,30.04,ESE,112,6.5,10.0,69,0.00,,,0.00,Rainwise IP-100,2013-08-20 19:10:00,
2013-08-20 15:15:00,86.2,74.0,30.04,ENE,67,10.0,12.0,69,0.00,,,0.00,Rainwise IP-100,2013-08-20 19:15:00,
2013-08-20 15:20:00,86.1,75.0,30.04,East,90,9.6,14.0,70,0.00,,,0.00,Rainwise IP-100,2013-08-20 19:20:00,
2013-08-20 15:25:00,86.0,75.0,30.04,ENE,67,10.3,14.0,70,0.00,,,0.00,Rainwise IP-100,2013-08-20 19:25:00,
2013-08-20 15:31:00,86.1,74.0,30.03,ESE,112,4.9,12.0,68,0.00,,,0.00,Rainwise IP-100,2013-08-20 19:31:00,
2013-08-20 15:36:00,86.2,74.0,30.03,SSE,157,3.7,9.0,68,0.00,,,0.00,Rainwise IP-100,2013-08-20 19:36:00,
2013-08-20 15:41:00,86.5,74.0,30.03,ENE,67,4.7,10.0,68,0.00,,,0.00,Rainwise IP-100,2013-08-20 19:41:00,
2013-08-20 15:46:00,86.6,74.0,30.03,ENE,67,6.8,13.0,68,0.00,,,0.00,Rainwise IP-100,2013-08-20 19:46:00,
2013-08-20 15:51:00,86.6,74.0,30.03,ESE,112,8.9,13.0,68,0.00,,,0.00,Rainwise IP-100,2013-08-20 19:51:00,
2013-08-20 15:56:00,86.6,74.0,30.02,ENE,67,1.4,11.0,68,0.00,,,0.00,Rainwise IP-100,2013-08-20 19:56:00,
2013-08-20 16:01:00,86.8,74.0,30.02,East,90,6.8,11.0,68,0.00,,,0.00,Rainwise IP-100,2013-08-20 20:01:00,
2013-08-20 16:06:00,87.0,74.0,30.03,ESE,112,4.9,12.0,67,0.00,,,0.00,Rainwise IP-100,2013-08-20 20:06:00,
2013-08-20 16:12:00,87.1,75.0,30.03,ENE,67,5.6,12.0,68,0.00,,,0.00,Rainwise IP-100,2013-08-20 20:12:00,
2013-08-20 16:17:00,86.8,75.0,30.02,ESE,112,8.2,11.0,69,0.00,,,0.00,Rainwise IP-100,2013-08-20 20:17:00,
2013-08-20 16:22:00,86.6,74.0,30.02,East,90,7.0,11.0,68,0.00,,,0.00,Rainwise IP-100,2013-08-20 20:22:00,
2013-08-20 16:27:00,86.6,74.0,30.02,ENE,67,6.5,12.0,68,0.00,,,0.00,Rainwise IP-100,2013-08-20 20:27:00,
2013-08-20 16:32:00,86.5,74.0,30.02,ESE,112,10.0,12.0,67,0.00,,,0.00,Rainwise IP-100,2013-08-20 20:32:00,
2013-08-20 16:37:00,86.3,73.0,30.02,ENE,67,7.2,12.0,67,0.00,,,0.00,Rainwise IP-100,2013-08-20 20:37:00,
2013-08-20 16:42:00,86.2,74.0,30.02,East,90,5.1,11.0,68,0.00,,,0.00,Rainwise IP-100,2013-08-20 20:42:00,
2013-08-20 16:48:00,86.3,74.0,30.03,ENE,67,6.1,10.0,69,0.00,,,0.00,Rainwise IP-100,2013-08-20 20:48:00,
2013-08-20 16:53:00,86.5,75.0,30.03,ENE,67,7.7,9.0,70,0.00,,,0.00,Rainwise IP-100,2013-08-20 20:53:00,
2013-08-20 16:58:00,86.4,76.0,30.03,East,90,7.0,11.0,71,0.00,,,0.00,Rainwise IP-100,2013-08-20 20:58:00,
2013-08-20 17:03:00,86.2,75.0,30.03,ENE,67,3.7,9.0,71,0.00,,,0.00,Rainwise IP-100,2013-08-20 21:03:00,
2013-08-20 17:08:00,85.9,75.0,30.03,ESE,112,4.2,9.0,71,0.00,,,0.00,Rainwise IP-100,2013-08-20 21:08:00,
2013-08-20 17:13:00,85.9,75.0,30.02,ENE,67,4.9,12.0,71,0.00,,,0.00,Rainwise IP-100,2013-08-20 21:13:00,
2013-08-20 17:18:00,85.8,75.0,30.03,ENE,67,5.1,10.0,71,0.00,,,0.00,Rainwise IP-100,2013-08-20 21:18:00,
2013-08-20 17:23:00,85.9,75.0,30.02,ENE,67,7.5,13.0,71,0.00,,,0.00,Rainwise IP-100,2013-08-20 21:23:00,
2013-08-20 17:29:00,85.9,75.0,30.02,East,90,6.1,14.0,71,0.00,,,0.00,Rainwise IP-100,2013-08-20 21:29:00,
2013-08-20 17:34:00,86.0,75.0,30.03,East,90,7.2,11.0,71,0.00,,,0.00,Rainwise IP-100,2013-08-20 21:34:00,
2013-08-20 17:39:00,85.9,75.0,30.03,ENE,67,6.3,10.0,71,0.00,,,0.00,Rainwise IP-100,2013-08-20 21:39:00,
2013-08-20 17:44:00,85.7,75.0,30.02,ENE,67,5.1,11.0,71,0.00,,,0.00,Rainwise IP-100,2013-08-20 21:44:00,
2013-08-20 17:49:00,85.7,75.0,30.02,ENE,67,4.9,10.0,71,0.00,,,0.00,Rainwise IP-100,2013-08-20 21:49:00,
2013-08-20 17:54:00,86.0,75.0,30.02,ESE,112,4.4,10.0,71,0.00,,,0.00,Rainwise IP-100,2013-08-20 21:54:00,
2013-08-20 17:59:00,86.2,75.0,30.02,East,90,8.2,8.2,71,0.00,,,0.00,Rainwise IP-100,2013-08-20 21:59:00,
2013-08-20 18:05:00,86.1,75.0,30.02,ENE,67,9.8,10.0,71,0.00,,,0.00,Rainwise IP-100,2013-08-20 22:05:00,
2013-08-20 18:10:00,86.0,76.0,30.02,ENE,67,7.0,12.0,72,0.00,,,0.00,Rainwise IP-100,2013-08-20 22:10:00,
2013-08-20 18:15:00,85.7,76.0,30.02,East,90,4.0,10.0,73,0.00,,,0.00,Rainwise IP-100,2013-08-20 22:15:00,
2013-08-20 18:20:00,85.4,76.0,30.02,East,90,2.1,7.0,74,0.00,,,0.00,Rainwise IP-100,2013-08-20 22:20:00,
2013-08-20 18:25:00,85.7,76.0,30.02,East,90,10.7,10.7,74,0.00,,,0.00,Rainwise IP-100,2013-08-20 22:25:00,
2013-08-20 18:30:00,85.7,76.0,30.02,ENE,67,6.3,11.0,75,0.00,,,0.00,Rainwise IP-100,2013-08-20 22:30:00,
2013-08-20 18:35:00,85.3,76.0,30.02,ENE,67,5.8,11.0,76,0.00,,,0.00,Rainwise IP-100,2013-08-20 22:35:00,
2013-08-20 18:40:00,85.0,76.0,30.02,ENE,67,6.5,11.0,76,0.00,,,0.00,Rainwise IP-100,2013-08-20 22:40:00,
2013-08-20 18:46:00,84.7,76.0,30.02,ENE,67,6.5,13.0,76,0.00,,,0.00,Rainwise IP-100,2013-08-20 22:46:00,
2013-08-20 18:51:00,84.5,76.0,30.02,ENE,67,8.4,10.0,76,0.00,,,0.00,Rainwise IP-100,2013-08-20 22:51:00,
2013-08-20 18:56:00,84.4,76.0,30.02,ENE,67,6.8,11.0,77,0.00,,,0.00,Rainwise IP-100,2013-08-20 22:56:00,
2013-08-20 19:01:00,84.3,76.0,30.02,East,90,7.9,13.0,77,0.00,,,0.00,Rainwise IP-100,2013-08-20 23:01:00,
2013-08-20 19:06:00,84.3,76.0,30.02,ENE,67,5.8,12.0,77,0.00,,,0.00,Rainwise IP-100,2013-08-20 23:06:00,
2013-08-20 19:11:00,84.2,76.0,30.02,ESE,112,5.4,9.0,77,0.00,,,0.00,Rainwise IP-100,2013-08-20 23:11:00,
2013-08-20 19:16:00,84.2,76.0,30.02,ENE,67,3.3,9.0,77,0.00,,,0.00,Rainwise IP-100,2013-08-20 23:16:00,
2013-08-20 19:22:00,84.2,76.0,30.02,ENE,67,4.9,10.0,77,0.00,,,0.00,Rainwise IP-100,2013-08-20 23:22:00,
2013-08-20 19:27:00,84.1,76.0,30.02,ENE,67,4.4,14.0,78,0.00,,,0.00,Rainwise IP-100,2013-08-20 23:27:00,
2013-08-20 19:32:00,84.0,76.0,30.02,ENE,67,6.1,12.0,78,0.00,,,0.00,Rainwise IP-100,2013-08-20 23:32:00,
2013-08-20 19:37:00,84.0,76.0,30.02,East,90,8.6,10.0,78,0.00,,,0.00,Rainwise IP-100,2013-08-20 23:37:00,
2013-08-20 19:42:00,84.0,76.0,30.02,ESE,112,6.3,11.0,77,0.00,,,0.00,Rainwise IP-100,2013-08-20 23:42:00,
2013-08-20 19:47:00,84.1,76.0,30.03,East,90,8.6,13.0,76,0.00,,,0.00,Rainwise IP-100,2013-08-20 23:47:00,
2013-08-20 19:52:00,84.1,76.0,30.03,ESE,112,5.4,11.0,77,0.00,,,0.00,Rainwise IP-100,2013-08-20 23:52:00,
2013-08-20 19:57:00,84.1,76.0,30.02,East,90,6.3,11.0,77,0.00,,,0.00,Rainwise IP-100,2013-08-20 23:57:00,
2013-08-20 20:03:00,84.0,76.0,30.03,ENE,67,8.2,11.0,77,0.00,,,0.00,Rainwise IP-100,2013-08-21 00:03:00,
2013-08-20 20:08:00,84.0,76.0,30.03,NE,45,13.1,13.1,77,0.00,,,0.00,Rainwise IP-100,2013-08-21 00:08:00,
2013-08-20 20:13:00,84.0,76.0,30.03,ENE,67,5.4,13.0,77,0.00,,,0.00,Rainwise IP-100,2013-08-21 00:13:00,
2013-08-20 20:18:00,83.9,76.0,30.03,ENE,67,4.7,11.0,78,0.00,,,0.00,Rainwise IP-100,2013-08-21 00:18:00,
2013-08-20 20:23:00,83.8,76.0,30.03,ENE,67,5.6,11.0,78,0.00,,,0.00,Rainwise IP-100,2013-08-21 00:23:00,
2013-08-20 20:28:00,83.9,76.0,30.03,ENE,67,5.6,11.0,79,0.00,,,0.00,Rainwise IP-100,2013-08-21 00:28:00,
2013-08-20 20:33:00,83.9,76.0,30.03,ENE,67,7.9,10.0,79,0.00,,,0.00,Rainwise IP-100,2013-08-21 00:33:00,
2013-08-20 20:39:00,83.8,76.0,30.04,NE,45,5.4,11.0,79,0.00,,,0.00,Rainwise IP-100,2013-08-21 00:39:00,
2013-08-20 20:44:00,83.7,76.0,30.04,ENE,67,4.9,9.0,79,0.00,,,0.00,Rainwise IP-100,2013-08-21 00:44:00,
2013-08-20 20:49:00,83.7,76.0,30.04,ESE,112,4.9,11.0,78,0.00,,,0.00,Rainwise IP-100,2013-08-21 00:49:00,
2013-08-20 20:54:00,83.8,75.0,30.04,East,90,5.6,9.0,76,0.00,,,0.00,Rainwise IP-100,2013-08-21 00:54:00,
2013-08-20 20:59:00,83.9,76.0,30.05,ENE,67,2.8,8.0,76,0.00,,,0.00,Rainwise IP-100,2013-08-21 00:59:00,
2013-08-20 21:04:00,83.8,76.0,30.05,East,90,4.9,9.0,77,0.00,,,0.00,Rainwise IP-100,2013-08-21 01:04:00,
2013-08-20 21:09:00,83.8,76.0,30.05,East,90,6.8,9.0,77,0.00,,,0.00,Rainwise IP-100,2013-08-21 01:09:00,
2013-08-20 21:14:00,83.9,76.0,30.06,ENE,67,6.8,8.0,77,0.00,,,0.00,Rainwise IP-100,2013-08-21 01:14:00,
2013-08-20 21:19:00,83.9,76.0,30.05,ENE,67,5.1,10.0,77,0.00,,,0.00,Rainwise IP-100,2013-08-21 01:19:00,
2013-08-20 21:24:00,83.9,76.0,30.06,NE,45,6.5,9.0,78,0.00,,,0.00,Rainwise IP-100,2013-08-21 01:24:00,
2013-08-20 21:29:00,83.8,76.0,30.06,East,90,4.4,12.0,78,0.00,,,0.00,Rainwise IP-100,2013-08-21 01:29:00,
2013-08-20 21:34:00,83.7,76.0,30.06,East,90,9.3,9.3,78,0.00,,,0.00,Rainwise IP-100,2013-08-21 01:34:00,
2013-08-20 21:40:00,83.7,76.0,30.06,ESE,112,7.0,10.0,78,0.00,,,0.00,Rainwise IP-100,2013-08-21 01:40:00,
2013-08-20 21:45:00,83.8,76.0,30.06,ENE,67,5.6,9.0,79,0.00,,,0.00,Rainwise IP-100,2013-08-21 01:45:00,
2013-08-20 21:50:00,83.8,76.0,30.06,NE,45,7.7,12.0,79,0.00,,,0.00,Rainwise IP-100,2013-08-21 01:50:00,
2013-08-20 21:55:00,83.8,76.0,30.07,ESE,112,6.3,11.0,79,0.00,,,0.00,Rainwise IP-100,2013-08-21 01:55:00,
2013-08-20 22:00:00,83.9,76.0,30.06,ENE,67,3.3,8.0,79,0.00,,,0.00,Rainwise IP-100,2013-08-21 02:00:00,
2013-08-20 22:05:00,83.8,76.0,30.07,ENE,67,4.4,12.0,79,0.00,,,0.00,Rainwise IP-100,2013-08-21 02:05:00,
2013-08-20 22:10:00,83.8,76.0,30.07,ENE,67,7.7,12.0,78,0.00,,,0.00,Rainwise IP-100,2013-08-21 02:10:00,
2013-08-20 22:16:00,84.0,76.0,30.07,East,90,3.7,10.0,77,0.00,,,0.00,Rainwise IP-100,2013-08-21 02:16:00,
2013-08-20 22:21:00,84.1,76.0,30.07,East,90,4.4,9.0,77,0.00,,,0.00,Rainwise IP-100,2013-08-21 02:21:00,
2013-08-20 22:26:00,84.1,76.0,30.08,ENE,67,4.0,11.0,77,0.00,,,0.00,Rainwise IP-100,2013-08-21 02:26:00,
2013-08-20 22:31:00,84.0,76.0,30.08,SE,135,1.9,9.0,77,0.00,,,0.00,Rainwise IP-100,2013-08-21 02:31:00,
2013-08-20 22:36:00,84.0,76.0,30.08,East,90,4.2,6.0,78,0.00,,,0.00,Rainwise IP-100,2013-08-21 02:36:00,
2013-08-20 22:41:00,83.9,76.0,30.07,East,90,9.8,9.8,78,0.00,,,0.00,Rainwise IP-100,2013-08-21 02:41:00,
2013-08-20 22:46:00,83.8,76.0,30.08,East,90,6.3,9.0,78,0.00,,,0.00,Rainwise IP-100,2013-08-21 02:46:00,
2013-08-20 22:51:00,83.9,76.0,30.08,ENE,67,4.0,7.0,78,0.00,,,0.00,Rainwise IP-100,2013-08-21 02:51:00,
2013-08-20 22:57:00,83.9,76.0,30.08,ENE,67,5.6,11.0,79,0.00,,,0.00,Rainwise IP-100,2013-08-21 02:57:00,
2013-08-20 23:02:00,84.0,77.0,30.08,ENE,67,5.1,11.0,80,0.00,,,0.00,Rainwise IP-100,2013-08-21 03:02:00,
2013-08-20 23:07:00,83.8,77.0,30.08,East,90,6.8,13.0,80,0.00,,,0.00,Rainwise IP-100,2013-08-21 03:07:00,
2013-08-20 23:12:00,83.8,77.0,30.09,ENE,67,5.1,10.0,80,0.00,,,0.00,Rainwise IP-100,2013-08-21 03:12:00,
2013-08-20 23:17:00,83.9,77.0,30.09,ENE,67,7.0,13.0,80,0.00,,,0.00,Rainwise IP-100,2013-08-21 03:17:00,
2013-08-20 23:22:00,83.6,76.0,30.09,NNE,22,4.2,12.0,80,0.00,,,0.00,Rainwise IP-100,2013-08-21 03:22:00,
2013-08-20 23:27:00,83.0,76.0,30.09,NNE,22,6.1,10.0,80,0.00,,,0.00,Rainwise IP-100,2013-08-21 03:27:00,
2013-08-20 23:33:00,82.6,76.0,30.09,ENE,67,3.7,10.0,81,0.00,,,0.00,Rainwise IP-100,2013-08-21 03:33:00,
2013-08-20 23:38:00,82.5,76.0,30.08,NNE,22,5.8,9.0,82,0.00,,,0.00,Rainwise IP-100,2013-08-21 03:38:00,
2013-08-20 23:43:00,82.4,76.0,30.08,ENE,67,8.4,12.0,82,0.00,,,0.00,Rainwise IP-100,2013-08-21 03:43:00,
2013-08-20 23:48:00,82.4,76.0,30.08,NE,45,4.2,10.0,82,0.00,,,0.00,Rainwise IP-100,2013-08-21 03:48:00,
2013-08-20 23:53:00,82.4,76.0,30.08,NE,45,5.1,12.0,82,0.00,,,0.00,Rainwise IP-100,2013-08-21 03:53:00,
2013-08-20 23:58:00,82.7,76.0,30.07,East,90,3.0,8.0,82,0.00,,,0.00,Rainwise IP-100,2013-08-21 03:58:00,